Check out our new BloomSky Weather System.

Active alerts

Houston, TX
  Details for Houston, TX Heat Advisory  +1 additional alert
Galveston, TX
  Details for Galveston, TX Air Quality Alert


Thunder radar  blitzortung!


Rain radar more information rain snow radar


Visit our other weather sites:

Template documentation
and downloads

And another site



Weather Underground History page Text

Daily Summary for June 20, 2017 Units:  Metric    English   Both
« Previous Day
Next Day »
Daily Weekly Monthly Yearly Custom
  High: Low: Average:
Temperature: -17.8 °C 24.9 °C 29.6 °C
Dew Point: -17.8 °C 23.4 °C 24.2 °C
Humidity: Humidity % 54 % 74 %
Wind Speed: 0 km/h 0 km/h 3.9 km/h
Wind Gust: 0 km/h - -
Wind:- - SW
Pressure: 0 hPa 1010 hPa -
Precipitation: 0 mm    
Historical Graphs
 
 
Tabular Data for June 20, 2017
Time Temperature Dew Point Pressure Wind Wind Speed Wind Gust Humidity Rainfall Rate (Hourly)
-17.8 °C -17.8 °C 0 hPa Calm     Humidity % 0 mm
00:04 28.7 °C 24.5 °C 1013.4 hPa Calm   1.6 km/h 78 % 0 mm
00:09 28.7 °C 24.5 °C 1013.4 hPa Calm   1.6 km/h 78 % 0 mm
00:14 28.7 °C 24.3 °C 1013.4 hPa NNW 1.6 km/h 3.2 km/h 77 % 0 mm
00:19 28.6 °C 24.2 °C 1013.4 hPa NNW 3.2 km/h 6.4 km/h 77 % 0 mm
00:24 28.6 °C 24.2 °C 1013.4 hPa North 3.2 km/h 8 km/h 77 % 0 mm
00:26 28.6 °C 24.2 °C 1013.4 hPa Calm   8 km/h 77 % 0 mm
00:31 28.6 °C 24.4 °C 1013.4 hPa NNW 1.6 km/h 8 km/h 78 % 0 mm
00:36 28.6 °C 24.4 °C 1013.4 hPa North 3.2 km/h 8 km/h 78 % 0 mm
00:41 28.6 °C 24.4 °C 1013.1 hPa North 9.7 km/h 9.7 km/h 78 % 0 mm
00:46 28.6 °C 24.4 °C 1013.1 hPa NW 3.2 km/h 11.3 km/h 78 % 0 mm
00:51 28.5 °C 24.3 °C 1013.1 hPa NNW 1.6 km/h 11.3 km/h 78 % 0 mm
00:56 28.4 °C 24.4 °C 1013.1 hPa Calm   11.3 km/h 79 % 0 mm
01:01 28.3 °C 24.3 °C 1013.1 hPa Calm   9.7 km/h 79 % 0 mm
01:06 28.2 °C 24.4 °C 1013.1 hPa Calm   6.4 km/h 80 % 0 mm
01:11 28.1 °C 24.3 °C 1013.4 hPa Calm   4.8 km/h 80 % 0 mm
01:16 28.1 °C 24.5 °C 1013.4 hPa Calm   4.8 km/h 81 % 0 mm
01:22 28 °C 24.4 °C 1013.4 hPa Calm   4.8 km/h 81 % 0 mm
01:26 27.9 °C 24.3 °C 1013.4 hPa West 1.6 km/h 4.8 km/h 81 % 0 mm
01:32 27.9 °C 24.5 °C 1013.1 hPa Calm   6.4 km/h 82 % 0 mm
01:37 27.9 °C 24.5 °C 1013.1 hPa ENE 3.2 km/h 6.4 km/h 82 % 0 mm
01:42 27.8 °C 24.4 °C 1013.1 hPa SE 1.6 km/h 6.4 km/h 82 % 0 mm
01:47 27.9 °C 24.5 °C 1013.1 hPa South 3.2 km/h 4.8 km/h 82 % 0 mm
01:52 27.8 °C 24.4 °C 1013.1 hPa Calm   4.8 km/h 82 % 0 mm
01:57 27.8 °C 24.4 °C 1012.8 hPa SE 1.6 km/h 4.8 km/h 82 % 0 mm
02:02 27.8 °C 24.4 °C 1012.8 hPa Calm   3.2 km/h 82 % 0 mm
02:07 27.7 °C 24.5 °C 1012.8 hPa North 1.6 km/h 3.2 km/h 83 % 0 mm
02:12 27.6 °C 24.4 °C 1012.8 hPa NE 3.2 km/h 4.8 km/h 83 % 0 mm
02:17 27.6 °C 24.4 °C 1012.8 hPa Calm   4.8 km/h 83 % 0 mm
02:22 27.4 °C 24.3 °C 1012.8 hPa Calm   4.8 km/h 83 % 0 mm
02:27 27.3 °C 24.2 °C 1012.8 hPa ENE 3.2 km/h 6.4 km/h 83 % 0 mm
02:32 27.3 °C 24.2 °C 1012.8 hPa Calm   6.4 km/h 83 % 0 mm
02:37 27.2 °C 24.1 °C 1012.8 hPa North 3.2 km/h 6.4 km/h 83 % 0 mm
02:42 27.2 °C 24.3 °C 1012.8 hPa Calm   6.4 km/h 84 % 0 mm
02:47 27.1 °C 24.2 °C 1012.4 hPa Calm   6.4 km/h 84 % 0 mm
02:52 27.1 °C 24.2 °C 1012.4 hPa Calm   3.2 km/h 84 % 0 mm
02:57 26.9 °C 24 °C 1012.4 hPa Calm   1.6 km/h 84 % 0 mm
03:02 26.8 °C 24.1 °C 1012.4 hPa NNW 1.6 km/h 1.6 km/h 85 % 0 mm
03:07 26.8 °C 24.1 °C 1012.4 hPa Calm   1.6 km/h 85 % 0 mm
03:12 26.7 °C 24 °C 1012.4 hPa NW 1.6 km/h 3.2 km/h 85 % 0 mm
03:17 26.6 °C 24.1 °C 1012.1 hPa Calm   3.2 km/h 86 % 0 mm
03:22 26.5 °C 24 °C 1012.1 hPa NNW 1.6 km/h 3.2 km/h 86 % 0 mm
03:27 26.4 °C 23.9 °C 1012.1 hPa Calm   3.2 km/h 86 % 0 mm
03:32 26.3 °C 23.8 °C 1012.1 hPa Calm   3.2 km/h 86 % 0 mm
03:37 26.2 °C 23.7 °C 1012.1 hPa Calm   3.2 km/h 86 % 0 mm
03:42 26.2 °C 23.9 °C 1012.1 hPa Calm   1.6 km/h 87 % 0 mm
03:47 26.1 °C 23.8 °C 1012.1 hPa Calm   1.6 km/h 87 % 0 mm
03:52 26 °C 23.7 °C 1012.1 hPa Calm   1.6 km/h 87 % 0 mm
03:57 25.9 °C 23.8 °C 1012.1 hPa NNW 1.6 km/h 1.6 km/h 88 % 0 mm
04:02 25.9 °C 23.8 °C 1012.1 hPa Calm   1.6 km/h 88 % 0 mm
04:07 25.8 °C 23.7 °C 1012.1 hPa Calm   1.6 km/h 88 % 0 mm
04:12 25.8 °C 23.7 °C 1012.1 hPa Calm   1.6 km/h 88 % 0 mm
04:17 25.7 °C 23.7 °C 1012.1 hPa Calm   1.6 km/h 89 % 0 mm
04:22 25.7 °C 23.7 °C 1012.1 hPa Calm   1.6 km/h 89 % 0 mm
04:27 25.7 °C 23.7 °C 1012.1 hPa Calm   1.6 km/h 89 % 0 mm
04:32 25.7 °C 23.7 °C 1012.1 hPa NW 1.6 km/h 1.6 km/h 89 % 0 mm
04:37 25.7 °C 23.7 °C 1012.1 hPa Calm   3.2 km/h 89 % 0 mm
04:42 25.7 °C 23.7 °C 1012.1 hPa North 1.6 km/h 3.2 km/h 89 % 0 mm
04:43 25.6 °C 23.6 °C 1012.1 hPa Calm   3.2 km/h 89 % 0 mm
04:48 25.6 °C 23.8 °C 1012.1 hPa NW 1.6 km/h 3.2 km/h 90 % 0 mm
04:53 25.6 °C 23.8 °C 1012.1 hPa NW 1.6 km/h 3.2 km/h 90 % 0 mm
04:58 25.5 °C 23.7 °C 1012.1 hPa Calm   3.2 km/h 90 % 0 mm
05:03 25.5 °C 23.7 °C 1012.1 hPa NNW 1.6 km/h 4.8 km/h 90 % 0 mm
05:05 25.5 °C 23.7 °C 1012.1 hPa North 1.6 km/h 4.8 km/h 90 % 0 mm
05:10 25.4 °C 23.6 °C 1011.7 hPa Calm   4.8 km/h 90 % 0 mm
05:15 25.4 °C 23.6 °C 1011.7 hPa North 3.2 km/h 4.8 km/h 90 % 0 mm
05:20 25.4 °C 23.8 °C 1011.7 hPa Calm   4.8 km/h 91 % 0 mm
05:25 25.3 °C 23.7 °C 1012.1 hPa NNW 1.6 km/h 8 km/h 91 % 0 mm
05:30 25.3 °C 23.7 °C 1012.1 hPa NNW 1.6 km/h 8 km/h 91 % 0 mm
05:35 25.3 °C 23.7 °C 1012.1 hPa NNW 1.6 km/h 8 km/h 91 % 0 mm
05:40 25.2 °C 23.6 °C 1012.1 hPa North 1.6 km/h 4.8 km/h 91 % 0 mm
05:45 25.2 °C 23.6 °C 1012.1 hPa Calm   4.8 km/h 91 % 0 mm
05:50 25.2 °C 23.6 °C 1012.1 hPa Calm   4.8 km/h 91 % 0 mm
05:55 25.1 °C 23.5 °C 1012.1 hPa Calm   6.4 km/h 91 % 0 mm
06:00 25.1 °C 23.7 °C 1012.1 hPa NNW 1.6 km/h 6.4 km/h 92 % 0 mm
06:05 25.1 °C 23.7 °C 1012.1 hPa Calm   6.4 km/h 92 % 0 mm
06:11 25 °C 23.6 °C 1012.4 hPa Calm   3.2 km/h 92 % 0 mm
06:16 24.9 °C 23.5 °C 1012.4 hPa NW 1.6 km/h 3.2 km/h 92 % 0 mm
06:21 24.9 °C 23.5 °C 1012.4 hPa Calm   3.2 km/h 92 % 0 mm
06:26 24.9 °C 23.5 °C 1012.4 hPa Calm   3.2 km/h 92 % 0 mm
06:31 24.9 °C 23.5 °C 1012.4 hPa NW 1.6 km/h 3.2 km/h 92 % 0 mm
06:36 24.9 °C 23.5 °C 1012.4 hPa NW 1.6 km/h 3.2 km/h 92 % 0 mm
06:41 24.9 °C 23.7 °C 1012.4 hPa WNW 1.6 km/h 3.2 km/h 93 % 0 mm
06:46 24.9 °C 23.5 °C 1012.4 hPa NW 1.6 km/h 3.2 km/h 92 % 0 mm
06:51 24.9 °C 23.7 °C 1012.4 hPa Calm   3.2 km/h 93 % 0 mm
06:56 25 °C 23.8 °C 1012.4 hPa Calm   4.8 km/h 93 % 0 mm
07:01 25.1 °C 23.9 °C 1012.8 hPa NNW 1.6 km/h 4.8 km/h 93 % 0 mm
07:06 25.2 °C 23.8 °C 1012.4 hPa NW 1.6 km/h 6.4 km/h 92 % 0 mm
07:07 25.2 °C 23.8 °C 1012.4 hPa Calm   6.4 km/h 92 % 0 mm
07:12 25.4 °C 24 °C 1012.8 hPa NNE 1.6 km/h 6.4 km/h 92 % 0 mm
07:17 25.6 °C 24.2 °C 1012.8 hPa Calm   6.4 km/h 92 % 0 mm
07:22 25.7 °C 24.1 °C 1012.8 hPa NNW 1.6 km/h 6.4 km/h 91 % 0 mm
07:27 25.9 °C 24.3 °C 1012.8 hPa NNW 1.6 km/h 6.4 km/h 91 % 0 mm
07:32 26.1 °C 24.3 °C 1012.8 hPa NW 4.8 km/h 6.4 km/h 90 % 0 mm
07:37 26.3 °C 24.3 °C 1012.8 hPa NW 1.6 km/h 6.4 km/h 89 % 0 mm
07:42 26.5 °C 24.5 °C 1012.8 hPa Calm   6.4 km/h 89 % 0 mm
07:47 26.7 °C 24.5 °C 1012.8 hPa NW 3.2 km/h 8 km/h 88 % 0 mm
07:52 26.7 °C 24.4 °C 1012.8 hPa NNW 1.6 km/h 8 km/h 87 % 0 mm
07:57 26.9 °C 24.5 °C 1012.8 hPa NW 4.8 km/h 9.7 km/h 87 % 0 mm
08:02 27.1 °C 24.6 °C 1012.8 hPa NNW 4.8 km/h 9.7 km/h 86 % 0 mm
08:07 27.2 °C 24.7 °C 1012.8 hPa NNE 3.2 km/h 9.7 km/h 86 % 0 mm
08:12 27.4 °C 24.7 °C 1012.8 hPa ENE 1.6 km/h 8 km/h 85 % 0 mm
08:17 27.7 °C 24.9 °C 1012.8 hPa NW 1.6 km/h 9.7 km/h 85 % 0 mm
08:22 27.9 °C 24.7 °C 1013.1 hPa Calm   9.7 km/h 83 % 0 mm
08:27 27.9 °C 24.7 °C 1013.1 hPa NNW 1.6 km/h 11.3 km/h 83 % 0 mm
08:32 28.1 °C 24.9 °C 1013.1 hPa WNW 1.6 km/h 11.3 km/h 83 % 0 mm
08:37 28.2 °C 25 °C 1013.4 hPa NNE 9.7 km/h 14.5 km/h 83 % 0 mm
08:42 28.2 °C 24.8 °C 1013.4 hPa NNW 1.6 km/h 14.5 km/h 82 % 0 mm
08:47 28.2 °C 24.8 °C 1013.4 hPa NNE 4.8 km/h 14.5 km/h 82 % 0 mm
08:52 28 °C 24.6 °C 1013.4 hPa North 11.3 km/h 19.3 km/h 82 % 0 mm
08:57 28 °C 24.8 °C 1013.4 hPa NW 4.8 km/h 19.3 km/h 83 % 0 mm
09:02 28.2 °C 24.8 °C 1013.4 hPa North 1.6 km/h 19.3 km/h 82 % 0 mm
09:07 28.6 °C 25 °C 1013.4 hPa NNE 3.2 km/h 12.9 km/h 81 % 0 mm
09:12 28.8 °C 25 °C 1013.4 hPa ENE 1.6 km/h 12.9 km/h 80 % 0 mm
09:17 29.1 °C 25.1 °C 1013.4 hPa ENE 6.4 km/h 11.3 km/h 79 % 0 mm
09:22 29.3 °C 25.1 °C 1013.4 hPa NW 3.2 km/h 11.3 km/h 78 % 0 mm
09:23 29.3 °C 25.1 °C 1013.4 hPa NE 3.2 km/h 11.3 km/h 78 % 0 mm
09:28 29.4 °C 24.9 °C 1013.4 hPa NW 4.8 km/h 14.5 km/h 77 % 0 mm
09:34 29.6 °C 24.9 °C 1013.4 hPa NE 4.8 km/h 16.1 km/h 76 % 0 mm
09:39 29.7 °C 24.8 °C 1013.4 hPa ENE 4.8 km/h 16.1 km/h 75 % 0 mm
09:44 29.8 °C 25.1 °C 1013.4 hPa East 1.6 km/h 16.1 km/h 76 % 0 mm
09:49 30.2 °C 25.3 °C 1013.1 hPa NNW 4.8 km/h 16.1 km/h 75 % 0 mm
09:54 30.3 °C 24.9 °C 1013.1 hPa NW 4.8 km/h 16.1 km/h 73 % 0 mm
09:59 30.4 °C 25 °C 1013.1 hPa ENE 4.8 km/h 12.9 km/h 73 % 0 mm
10:04 30.7 °C 25.3 °C 1013.1 hPa North 6.4 km/h 14.5 km/h 73 % 0 mm
10:09 30.7 °C 24.8 °C 1013.1 hPa ENE 3.2 km/h 14.5 km/h 71 % 0 mm
10:14 30.8 °C 24.9 °C 1013.1 hPa NNW 3.2 km/h 14.5 km/h 71 % 0 mm
10:19 31 °C 25.1 °C 1013.1 hPa East 1.6 km/h 14.5 km/h 71 % 0 mm
10:24 31.4 °C 25.5 °C 1013.1 hPa North 8 km/h 14.5 km/h 71 % 0 mm
10:29 31.7 °C 25.1 °C 1013.1 hPa ESE 3.2 km/h 14.5 km/h 68 % 0 mm
10:34 31.8 °C 25.4 °C 1013.1 hPa NW 4.8 km/h 14.5 km/h 69 % 0 mm
10:39 32 °C 25.3 °C 1013.1 hPa NNW 6.4 km/h 11.3 km/h 68 % 0 mm
10:44 31.9 °C 25.3 °C 1013.1 hPa ESE 1.6 km/h 16.1 km/h 68 % 0 mm
10:49 32 °C 24.8 °C 1013.1 hPa NW 8 km/h 16.1 km/h 66 % 0 mm
10:54 32.2 °C 25.3 °C 1013.1 hPa WNW 3.2 km/h 17.7 km/h 67 % 0 mm
10:59 32.3 °C 25.1 °C 1013.1 hPa NNW 3.2 km/h 17.7 km/h 66 % 0 mm
11:04 32.4 °C 25.2 °C 1013.1 hPa North 3.2 km/h 17.7 km/h 66 % 0 mm
11:09 32.2 °C 24.8 °C 1013.1 hPa WNW 3.2 km/h 12.9 km/h 65 % 0 mm
11:14 32.3 °C 24.9 °C 1013.1 hPa ENE 9.7 km/h 17.7 km/h 65 % 0 mm
11:19 32.4 °C 25 °C 1013.1 hPa NNW 8 km/h 17.7 km/h 65 % 0 mm
11:24 32.5 °C 24.8 °C 1013.1 hPa NW 4.8 km/h 19.3 km/h 64 % 0 mm
11:29 32.7 °C 24.5 °C 1013.1 hPa North 9.7 km/h 19.3 km/h 62 % 0 mm
11:34 32.7 °C 24.5 °C 1013.1 hPa North 12.9 km/h 19.3 km/h 62 % 0 mm
11:39 32.7 °C 24.7 °C 1012.8 hPa North 8 km/h 16.1 km/h 63 % 0 mm
11:42 32.6 °C 24.4 °C 1012.8 hPa West 4.8 km/h 16.1 km/h 62 % 0 mm
11:47 32.6 °C 24.4 °C 1012.8 hPa ENE 9.7 km/h 17.7 km/h 62 % 0 mm
11:52 32.8 °C 24.6 °C 1012.8 hPa ENE 8 km/h 17.7 km/h 62 % 0 mm
11:57 33 °C 24.2 °C 1012.8 hPa NNE 4.8 km/h 17.7 km/h 60 % 0 mm
12:02 33.2 °C 24.7 °C 1012.8 hPa NW 6.4 km/h 16.1 km/h 61 % 0 mm
12:07 33.1 °C 24.3 °C 1012.8 hPa NNW 12.9 km/h 22.5 km/h 60 % 0 mm
12:12 32.8 °C 24.3 °C 1012.8 hPa NW 4.8 km/h 22.5 km/h 61 % 0 mm
12:17 32.9 °C 24.4 °C 1012.8 hPa ENE 3.2 km/h 22.5 km/h 61 % 0 mm
12:22 33.4 °C 24.3 °C 1012.8 hPa North 6.4 km/h 22.5 km/h 59 % 0 mm
12:27 33.3 °C 24.5 °C 1012.8 hPa SW 1.6 km/h 22.5 km/h 60 % 0 mm
12:32 33.6 °C 24.8 °C 1012.8 hPa ENE 4.8 km/h 20.9 km/h 60 % 0 mm
12:37 33.8 °C 24.4 °C 1012.8 hPa North 6.4 km/h 20.9 km/h 58 % 0 mm
12:42 33.3 °C 24.5 °C 1012.8 hPa NW 11.3 km/h 20.9 km/h 60 % 0 mm
12:47 33.4 °C 24.8 °C 1012.8 hPa ENE 3.2 km/h 16.1 km/h 61 % 0 mm
12:52 33.6 °C 24.8 °C 1012.4 hPa WNW 3.2 km/h 16.1 km/h 60 % 0 mm
12:57 33.8 °C 24.4 °C 1012.4 hPa WNW 4.8 km/h 16.1 km/h 58 % 0 mm
13:02 33.3 °C 23.9 °C 1012.4 hPa ENE 4.8 km/h 20.9 km/h 58 % 0 mm
13:07 33.1 °C 24 °C 1012.4 hPa ENE 8 km/h 20.9 km/h 59 % 0 mm
13:12 33.2 °C 24.4 °C 1012.4 hPa NNW 11.3 km/h 20.9 km/h 60 % 0 mm
13:17 33.6 °C 24.5 °C 1012.1 hPa NW 6.4 km/h 19.3 km/h 59 % 0 mm
13:22 33.8 °C 24.4 °C 1012.1 hPa ENE 16.1 km/h 19.3 km/h 58 % 0 mm
13:27 33.3 °C 24.2 °C 1012.1 hPa NW 6.4 km/h 19.3 km/h 59 % 0 mm
13:32 33.4 °C 24 °C 1012.1 hPa NNW 9.7 km/h 19.3 km/h 58 % 0 mm
13:37 33.8 °C 24.4 °C 1012.1 hPa NW 9.7 km/h 19.3 km/h 58 % 0 mm
13:42 33.9 °C 24.5 °C 1012.1 hPa NNW 1.6 km/h 19.3 km/h 58 % 0 mm
13:47 34.1 °C 24.7 °C 1011.7 hPa NW 3.2 km/h 19.3 km/h 58 % 0 mm
13:52 33.8 °C 24.4 °C 1011.7 hPa North 6.4 km/h 17.7 km/h 58 % 0 mm
13:57 33.8 °C 24.7 °C 1011.7 hPa NNW 3.2 km/h 17.7 km/h 59 % 0 mm
14:02 34.1 °C 24.7 °C 1011.7 hPa NNW 4.8 km/h 20.9 km/h 58 % 0 mm
14:07 34.3 °C 24.6 °C 1011.7 hPa North 14.5 km/h 20.9 km/h 57 % 0 mm
14:12 34 °C 24.3 °C 1011.4 hPa NNW 3.2 km/h 22.5 km/h 57 % 0 mm
14:17 34.3 °C 24.6 °C 1011.4 hPa North 6.4 km/h 22.5 km/h 57 % 0 mm
14:22 34.4 °C 24 °C 1011.4 hPa NNW 9.7 km/h 22.5 km/h 55 % 0 mm
14:27 34.1 °C 24.4 °C 1011.4 hPa NNW 11.3 km/h 19.3 km/h 57 % 0 mm
14:32 33.8 °C 24.4 °C 1011.4 hPa NNE 4.8 km/h 19.3 km/h 58 % 0 mm
14:37 33.7 °C 24.6 °C 1011.4 hPa NNE 8 km/h 17.7 km/h 59 % 0 mm
14:42 33.9 °C 24.2 °C 1011.1 hPa WNW 6.4 km/h 19.3 km/h 57 % 0 mm
14:47 34.1 °C 24.4 °C 1011.1 hPa NE 16.1 km/h 24.1 km/h 57 % 0 mm
14:52 34.3 °C 24.3 °C 1011.1 hPa NNW 6.4 km/h 24.1 km/h 56 % 0 mm
14:57 34.4 °C 24.3 °C 1011.1 hPa WNW 3.2 km/h 24.1 km/h 56 % 0 mm
15:02 34.6 °C 24.5 °C 1011.1 hPa NW 8 km/h 22.5 km/h 56 % 0 mm
15:07 34.6 °C 24.2 °C 1011.1 hPa North 3.2 km/h 19.3 km/h 55 % 0 mm
15:12 34.4 °C 24 °C 1011.1 hPa NNW 8 km/h 20.9 km/h 55 % 0 mm
15:17 34.4 °C 24 °C 1011.1 hPa SE 3.2 km/h 20.9 km/h 55 % 0 mm
15:22 34.3 °C 23.7 °C 1011.1 hPa East 4.8 km/h 20.9 km/h 54 % 0 mm
15:27 34.3 °C 24.3 °C 1011.1 hPa ENE 4.8 km/h 17.7 km/h 56 % 0 mm
15:32 34.3 °C 24 °C 1011.1 hPa North 12.9 km/h 19.3 km/h 55 % 0 mm
15:37 34.2 °C 23.6 °C 1011.1 hPa WSW 9.7 km/h 22.5 km/h 54 % 0 mm
15:42 34.2 °C 24.2 °C 1010.7 hPa NNW 8 km/h 24.1 km/h 56 % 0 mm
15:47 34.1 °C 24.7 °C 1010.7 hPa NW 6.4 km/h 24.1 km/h 58 % 0 mm
15:49 34.1 °C 24.7 °C 1010.7 hPa WNW 9.7 km/h 24.1 km/h 58 % 0 mm
15:54 34.1 °C 24.1 °C 1010.7 hPa NW 6.4 km/h 24.1 km/h 56 % 0 mm
15:59 34.1 °C 24.1 °C 1010.7 hPa NW 6.4 km/h 19.3 km/h 56 % 0 mm
16:04 34.1 °C 23.8 °C 1010.7 hPa North 6.4 km/h 19.3 km/h 55 % 0 mm
16:09 33.9 °C 24.2 °C 1010.4 hPa WNW 12.9 km/h 19.3 km/h 57 % 0 mm
16:14 33.9 °C 24.5 °C 1010.4 hPa NNW 4.8 km/h 19.3 km/h 58 % 0 mm
16:19 33.9 °C 24.2 °C 1010.4 hPa NW 6.4 km/h 19.3 km/h 57 % 0 mm
16:24 33.7 °C 24 °C 1010.4 hPa WNW 6.4 km/h 17.7 km/h 57 % 0 mm
16:29 33.6 °C 23.9 °C 1010.4 hPa NW 12.9 km/h 24.1 km/h 57 % 0 mm
16:34 33.3 °C 23.6 °C 1010.4 hPa NNW 4.8 km/h 24.1 km/h 57 % 0 mm
16:39 33.1 °C 23.4 °C 1010.4 hPa NNW 8 km/h 24.1 km/h 57 % 0 mm
16:40 33.1 °C 23.7 °C 1010.4 hPa SW 3.2 km/h 20.9 km/h 58 % 0 mm
16:45 33.1 °C 24 °C 1010 hPa NNE 8 km/h 16.1 km/h 59 % 0 mm
16:50 33.1 °C 24 °C 1010 hPa North 6.4 km/h 16.1 km/h 59 % 0 mm
16:55 33.1 °C 24 °C 1010 hPa ENE 16.1 km/h 17.7 km/h 59 % 0 mm
17:00 33.1 °C 24 °C 1010 hPa NNW 8 km/h 17.7 km/h 59 % 0 mm
17:02 33.1 °C 24 °C 1010.4 hPa NNW 9.7 km/h 17.7 km/h 59 % 0 mm
17:07 33.2 °C 24.1 °C 1010 hPa NE 4.8 km/h 17.7 km/h 59 % 0 mm
17:12 33.2 °C 24.1 °C 1010 hPa NNE 16.1 km/h 17.7 km/h 59 % 0 mm
17:17 33.1 °C 24.3 °C 1010 hPa NW 8 km/h 17.7 km/h 60 % 0 mm
17:22 32.9 °C 24.1 °C 1010 hPa WNW 8 km/h 17.7 km/h 60 % 0 mm
17:27 32.8 °C 24.3 °C 1010 hPa West 12.9 km/h 17.7 km/h 61 % 0 mm
17:32 32.7 °C 24.2 °C 1010 hPa NW 6.4 km/h 20.9 km/h 61 % 0 mm
17:33 32.7 °C 24.5 °C 1010 hPa NW 6.4 km/h 20.9 km/h 62 % 0 mm
17:38 32.6 °C 24.1 °C 1010 hPa NE 16.1 km/h 20.9 km/h 61 % 0 mm
17:43 32.4 °C 24.2 °C 1010 hPa WNW 1.6 km/h 20.9 km/h 62 % 0 mm
17:48 32.4 °C 24.2 °C 1010 hPa West 12.9 km/h 17.7 km/h 62 % 0 mm
17:53 32.3 °C 24.4 °C 1010 hPa NNE 9.7 km/h 24.1 km/h 63 % 0 mm
17:58 32.1 °C 24.2 °C 1010 hPa North 9.7 km/h 24.1 km/h 63 % 0 mm
18:03 32 °C 24.3 °C 1010 hPa NW 4.8 km/h 24.1 km/h 64 % 0 mm
18:08 31.9 °C 24.2 °C 1010 hPa NW 4.8 km/h 19.3 km/h 64 % 0 mm
18:13 31.9 °C 24.2 °C 1010 hPa West 9.7 km/h 19.3 km/h 64 % 0 mm
18:18 31.8 °C 24.1 °C 1010 hPa NW 6.4 km/h 19.3 km/h 64 % 0 mm
18:23 31.7 °C 24.3 °C 1010 hPa NE 4.8 km/h 16.1 km/h 65 % 0 mm
18:28 31.6 °C 24.2 °C 1010 hPa NNW 3.2 km/h 14.5 km/h 65 % 0 mm
18:33 31.6 °C 24.2 °C 1010 hPa WNW 3.2 km/h 14.5 km/h 65 % 0 mm
18:38 31.6 °C 24.2 °C 1010 hPa West 9.7 km/h 11.3 km/h 65 % 0 mm
18:43 31.4 °C 24 °C 1010 hPa WNW 3.2 km/h 12.9 km/h 65 % 0 mm
18:48 31.3 °C 24.2 °C 1010 hPa NNE 12.9 km/h 17.7 km/h 66 % 0 mm
18:53 31.1 °C 24.2 °C 1010 hPa North 9.7 km/h 17.7 km/h 67 % 0 mm
18:58 31.1 °C 24.2 °C 1010 hPa NNW 6.4 km/h 17.7 km/h 67 % 0 mm
19:03 31 °C 24.1 °C 1010 hPa NW 4.8 km/h 16.1 km/h 67 % 0 mm
19:08 30.9 °C 24.3 °C 1010 hPa WNW 1.6 km/h 16.1 km/h 68 % 0 mm
19:10 30.9 °C 24.3 °C 1010 hPa West 1.6 km/h 19.3 km/h 68 % 0 mm
19:15 30.9 °C 24.3 °C 1010 hPa North 8 km/h 19.3 km/h 68 % 0 mm
19:20 30.8 °C 24.4 °C 1010 hPa North 1.6 km/h 19.3 km/h 69 % 0 mm
19:25 30.8 °C 24.4 °C 1010 hPa WNW 3.2 km/h 16.1 km/h 69 % 0 mm
19:30 30.8 °C 24.4 °C 1010 hPa NNW 9.7 km/h 16.1 km/h 69 % 0 mm
19:35 30.7 °C 24.6 °C 1010.4 hPa WNW 1.6 km/h 16.1 km/h 70 % 0 mm
19:40 30.7 °C 24.6 °C 1010 hPa North 1.6 km/h 16.1 km/h 70 % 0 mm
19:45 30.6 °C 24.5 °C 1010 hPa NNW 6.4 km/h 16.1 km/h 70 % 0 mm
19:50 30.4 °C 24.5 °C 1010 hPa NE 1.6 km/h 9.7 km/h 71 % 0 mm
19:55 30.4 °C 24.5 °C 1010 hPa NNW 3.2 km/h 9.7 km/h 71 % 0 mm
20:00 30.3 °C 24.4 °C 1010.4 hPa NW 1.6 km/h 14.5 km/h 71 % 0 mm
20:05 30.2 °C 24.6 °C 1010.4 hPa NNE 4.8 km/h 14.5 km/h 72 % 0 mm
20:10 30.1 °C 24.5 °C 1010 hPa NNW 3.2 km/h 14.5 km/h 72 % 0 mm
20:15 30.1 °C 24.5 °C 1010.4 hPa NNW 6.4 km/h 12.9 km/h 72 % 0 mm
20:17 30 °C 24.4 °C 1010.4 hPa East 4.8 km/h 12.9 km/h 72 % 0 mm
20:22 29.9 °C 24.3 °C 1010.4 hPa NNW 8 km/h 12.9 km/h 72 % 0 mm
20:27 29.8 °C 24.4 °C 1010 hPa NE 1.6 km/h 12.9 km/h 73 % 0 mm
20:32 29.8 °C 24.4 °C 1010 hPa NE 3.2 km/h 12.9 km/h 73 % 0 mm
20:37 29.7 °C 24.3 °C 1010 hPa NE 4.8 km/h 12.9 km/h 73 % 0 mm
20:42 29.6 °C 24.5 °C 1010.4 hPa North 1.6 km/h 11.3 km/h 74 % 0 mm
20:47 29.6 °C 24.5 °C 1010.4 hPa NNW 1.6 km/h 11.3 km/h 74 % 0 mm
20:52 29.5 °C 24.6 °C 1010.4 hPa NNW 1.6 km/h 11.3 km/h 75 % 0 mm
20:57 29.4 °C 24.5 °C 1010.4 hPa NW 1.6 km/h 8 km/h 75 % 0 mm
21:02 29.3 °C 24.4 °C 1010.4 hPa NE 1.6 km/h 8 km/h 75 % 0 mm
21:07 29.3 °C 24.6 °C 1010.4 hPa NNE 8 km/h 8 km/h 76 % 0 mm
21:12 29.2 °C 24.5 °C 1010.4 hPa NNW 3.2 km/h 8 km/h 76 % 0 mm
21:13 29.2 °C 24.5 °C 1010.4 hPa NNE 3.2 km/h 8 km/h 76 % 0 mm
21:18 29.1 °C 24.4 °C 1010.4 hPa Calm   8 km/h 76 % 0 mm
21:23 29 °C 24.6 °C 1010 hPa WNW 4.8 km/h 9.7 km/h 77 % 0 mm
21:28 28.9 °C 24.5 °C 1010 hPa NE 3.2 km/h 9.7 km/h 77 % 0 mm
21:33 28.8 °C 24.4 °C 1010 hPa North 1.6 km/h 9.7 km/h 77 % 0 mm
21:38 28.8 °C 24.4 °C 1010 hPa NW 3.2 km/h 9.7 km/h 77 % 0 mm
21:43 28.8 °C 24.4 °C 1010.4 hPa NNW 1.6 km/h 11.3 km/h 77 % 0 mm
21:48 28.7 °C 24.3 °C 1010.4 hPa North 1.6 km/h 11.3 km/h 77 % 0 mm
21:53 28.7 °C 24.3 °C 1010.4 hPa NE 1.6 km/h 11.3 km/h 77 % 0 mm
21:58 28.6 °C 24.4 °C 1010.4 hPa NNE 3.2 km/h 9.7 km/h 78 % 0 mm
22:03 28.6 °C 24.4 °C 1010.4 hPa NNW 3.2 km/h 8 km/h 78 % 0 mm
22:08 28.5 °C 24.3 °C 1010.4 hPa NNE 1.6 km/h 8 km/h 78 % 0 mm
22:13 28.5 °C 24.3 °C 1010.4 hPa Calm   8 km/h 78 % 0 mm
22:18 28.4 °C 24.4 °C 1010.4 hPa Calm   8 km/h 79 % 0 mm
22:23 28.4 °C 24.4 °C 1010.7 hPa NE 1.6 km/h 8 km/h 79 % 0 mm
22:28 28.3 °C 24.3 °C 1010.7 hPa NNW 1.6 km/h 8 km/h 79 % 0 mm
22:33 28.3 °C 24.3 °C 1010.7 hPa ENE 3.2 km/h 8 km/h 79 % 0 mm
22:38 28.2 °C 24.2 °C 1010.7 hPa Calm   8 km/h 79 % 0 mm
22:43 28.2 °C 24.4 °C 1010.7 hPa NNE 1.6 km/h 8 km/h 80 % 0 mm
22:48 28.1 °C 24.3 °C 1010.7 hPa North 3.2 km/h 8 km/h 80 % 0 mm
22:53 28.1 °C 24.3 °C 1010.7 hPa North 1.6 km/h 8 km/h 80 % 0 mm
22:58 28 °C 24.2 °C 1010.7 hPa North 1.6 km/h 8 km/h 80 % 0 mm
23:00 28 °C 24.2 °C 1010.7 hPa Calm   8 km/h 80 % 0 mm
23:05 27.9 °C 24.3 °C 1010.7 hPa NW 3.2 km/h 8 km/h 81 % 0 mm
23:10 27.9 °C 24.3 °C 1010.7 hPa Calm   9.7 km/h 81 % 0 mm
23:15 27.8 °C 24.2 °C 1010.7 hPa Calm   11.3 km/h 81 % 0 mm
23:20 27.8 °C 24.2 °C 1010.7 hPa NNW 4.8 km/h 11.3 km/h 81 % 0 mm
23:25 27.8 °C 24.2 °C 1011.1 hPa WNW 3.2 km/h 11.3 km/h 81 % 0 mm
23:30 27.8 °C 24.2 °C 1011.1 hPa NNW 1.6 km/h 11.3 km/h 81 % 0 mm
23:35 27.7 °C 24.1 °C 1011.1 hPa Calm   11.3 km/h 81 % 0 mm
23:40 27.6 °C 24.2 °C 1011.1 hPa North 1.6 km/h 11.3 km/h 82 % 0 mm
23:45 27.6 °C 24.2 °C 1011.1 hPa NNW 3.2 km/h 11.3 km/h 82 % 0 mm
23:50 27.5 °C 24.4 °C 1011.1 hPa Calm   11.3 km/h 83 % 0 mm
23:55 27.4 °C 24.3 °C 1011.1 hPa NNW 3.2 km/h 11.3 km/h 83 % 0 mm
Spring, Texas: Villages of Bridgestone
Compliments of Weather Underground - 3 mb

Script developed by  Jim McMurry - jmcmurry@mwt.net Adapted for the template by  Wim van der Kuil - Leuven-Template.eu

You find our weather info also at:

UK Metoffice

WeatherCloud

Weather Underground

Mid-South Weather Network

AWEKAS

Citizen Weather Observer Program (CWOP)

HAMweather, WeatherForYou, PWS Weather

Equipment we use:

Weather-station
Davis Vantage Vue

Weather-program
Meteohub

Weather-server
Debian 7.9 x86 (Guest)

Provider
DreamHost

Davis Vantage Vue

Meteohub

Debian 7.9 x86 (Guest)

DreamHost